Starlink 11673

operational
NORAD ID: 64318 Int'l Des: 2025-124 Owner: SPXS Country: US Constellation: starlink
LEOCIRCULAR

Starlink 11673について

説明を読み込み中...

リアルタイム位置

3D地球を読み込み中...

次回通過

高度履歴

Altitude vs Time

uPlot chart will show altitude changes over time

軌道要素

1 64318U 25124B 25260.73843516 .00194810 00000-0 14825-2 0 9993
2 64318 42.9987 351.7104 0000589 296.1505 63.9302 15.70902942 15631
Epoch: Sep 17, 2025 • Age: 33 hours

現在のステータス

高度 355.2 km
速度 7.70 km/s
衛星直下点 26.77°N, 97.47°E
打ち上げ日 Jun 10, 2025
運用期間 0.2 years
タイプ internet

技術仕様

分類 Payload
質量 960.00 kg
乾燥質量 910.00 kg
総質量 960.00 kg
長さ 0.30 m
直径 4.10 m
スパン 29.00 m
形状 Box + pan
製造者 SPXS
バスタイプ Starlink V2MD
フェーズステータス In Orbit
所有者/国 SPXS/US

大規模コンステレーション

Loading constellations...